Retour au catalogue

STARLINK-11367

ActifCommunicationsVLEO
NORAD 62097·PAYLOAD·🇺🇸 United States

Lancé Nov 25, 2024 depuis Cape Canaveral Space Force Station

Loading…

Prochains Passages (prochaines 24 heures)

TLE

FraisSource: CelesTrak SupGP

Époque: Sep 14, 2026, 21:19 UTC

1 62097C 24220K   26257.88868056 -.00017174  00000+0 -13332-3 0  2578
2 62097  43.0004 342.3459 0001637 269.3976  53.3824 15.70860721    19

Suivez STARLINK-11367 en temps réel avec AllMySat

Download on the App Store